Home > Weather > Palermo > Past weeks

Flag for Italy Past Weather in Palermo, Italy — Yesterday and Last 2 Weeks

Now
72 °F

Clear.


Feels Like: 76 °F
Forecast: 64 / 78 °F
Wind: 2 mph from Southeast

Location: Palermo / Punta Raisi

Current Time: May 26, 2016 at 10:31:57 PM

Latest Report: May 26, 2016 at 9:50 PM


Visibility: 10 mi

Pressure: 30.01 "Hg

Humidity: 61%

Dew Point: 57 °F

Location of PalermoLocation

Past Weather in Palermo — Graph

°F

Palermo Temperature Yesterday

Maximum temperature yesterday: 75 °F (at 2:50 PM)
Minimum temperature yesterday: 57 °F (at 1:50 AM)
Average temperature yesterday: 66 °F

High & Low Weather Summary for the Past Weeks

 TemperatureHumidityPressure
High79 °F (May 21, 11:50 PM)100% (May 12, 3:20 AM)30.12 "Hg (May 12, 3:20 AM)
Low36 °F (May 22, 1:50 AM)6% (May 22, 6:50 AM)29.68 "Hg (May 12, 12:20 AM)
Average66 °F72%29.99 "Hg
* Reported May 11 9:20 PM — May 26 9:20 PM, Palermo, Weather by CustomWeather, © 2016

Note: Actual official high and low records may vary slightly from our data, if they occured in-between our weather recording intervals... More about our weather records

Advertising

Palermo Weather History for the Previous 24 Hours

Scroll right to see more
 ConditionsComfort  
Time TempWeatherWind HumidityBarometerVisibility
9:20 PM
Thu, May 26
72 °FSunny.6 mph61%29.98 "Hg10 mi
8:50 PM72 °FSunny.8 mph61%29.98 "Hg10 mi
8:20 PM72 °FSunny.10 mph57%29.98 "Hg10 mi
7:50 PM72 °FSunny.12 mph65%29.98 "Hg10 mi
7:20 PM73 °FSunny.12 mph65%29.98 "Hg10 mi
6:50 PM73 °FSunny.12 mph69%29.98 "Hg10 mi
6:20 PM73 °FSunny.9 mph69%29.98 "Hg10 mi
5:50 PM73 °FSunny.7 mph69%29.98 "Hg10 mi
5:20 PM73 °FSunny.9 mph69%29.98 "Hg10 mi
4:50 PM77 °FSunny.2 mph57%29.98 "Hg10 mi
4:20 PM79 °FSunny.14 mph45%29.98 "Hg10 mi
3:50 PM79 °FSunny.14 mph45%29.98 "Hg10 mi
3:20 PM77 °FSunny.12 mph51%30.01 "Hg10 mi
2:50 PM75 °FSunny.8 mph57%30.01 "Hg10 mi
2:20 PM75 °FSunny.8 mph61%30.01 "Hg10 mi
1:50 PM75 °FSunny.9 mph61%30.01 "Hg10 mi
1:20 PM73 °FSunny.10 mph65%30.01 "Hg10 mi
12:50 PM73 °FSunny.8 mph65%30.04 "Hg10 mi
12:20 PM73 °FPassing clouds.3 mph57%30.04 "HgN/A
11:50 AM72 °FPassing clouds.5 mph69%30.04 "HgN/A
11:20 AM72 °FPassing clouds.5 mph65%30.04 "HgN/A
10:50 AM72 °FPassing clouds.5 mph69%30.01 "HgN/A
10:20 AM70 °FSunny.3 mph69%30.01 "Hg10 mi
9:50 AM68 °FSunny.3 mph69%30.04 "Hg10 mi
9:20 AM68 °FSunny.3 mph69%30.04 "Hg10 mi
8:50 AM68 °FSunny.2 mph64%30.04 "Hg10 mi
8:20 AM66 °FSunny.6 mph68%30.04 "Hg10 mi
7:50 AM66 °FSunny.1 mph68%30.01 "Hg10 mi
7:20 AM66 °FSunny.3 mph68%30.01 "Hg10 mi
6:50 AM64 °FSunny.3 mph68%30.01 "Hg10 mi
6:20 AM63 °FClear.2 mph73%30.01 "Hg10 mi
5:50 AM61 °FClear.3 mph72%30.01 "Hg10 mi
5:20 AM63 °FClear.1 mph73%30.01 "Hg10 mi
4:20 AM63 °FPassing clouds.5 mph68%29.98 "HgN/A
3:50 AM64 °FClear.3 mph68%29.98 "Hg10 mi
3:20 AM63 °FPassing clouds.3 mph73%29.98 "HgN/A
2:50 AM63 °FClear.6 mph73%29.98 "Hg10 mi
2:20 AM63 °FClear.1 mph64%30.01 "Hg10 mi
1:50 AM66 °FClear.No wind60%29.98 "Hg10 mi
1:20 AM64 °FClear.3 mph73%30.01 "Hg10 mi
12:50 AM66 °FClear.6 mph73%29.98 "Hg10 mi
12:20 AM66 °FClear.5 mph68%29.98 "Hg10 mi
11:50 PM
Wed, May 25
66 °FClear.2 mph64%30.01 "Hg10 mi
11:20 PM66 °FClear.3 mph60%30.01 "Hg10 mi
10:50 PM68 °FClear.2 mph60%30.01 "Hg10 mi
10:20 PM68 °FClear.3 mph64%29.98 "Hg10 mi
Weather by CustomWeather, © 2016

See weather overviewHow to use our weather pages